Time,TemperatureF,DewpointF,PressureIn,WindDirection,WindDirectionDegrees,WindSpeedMPH,WindSpeedGustMPH,Humidity,HourlyPrecipIn,Conditions,Clouds,dailyrainin,SoftwareType,DateUTC
2013-03-04 00:00:00,28.7,18.4,29.58,ESE,120,0.0,2.0,65,0.00,,SKC,0.00,WeatherDisplay:10.37,2013-03-04 05:00:00,
2013-03-04 00:15:00,28.5,18.2,29.58,ENE,72,0.0,3.0,65,0.00,,SKC,0.00,WeatherDisplay:10.37,2013-03-04 05:15:00,
2013-03-04 00:30:00,28.4,18.1,29.59,East,79,0.0,2.0,65,0.00,,SKC,0.00,WeatherDisplay:10.37,2013-03-04 05:30:00,
2013-03-04 00:45:00,28.4,18.5,29.59,East,99,0.0,1.0,66,0.00,,SKC,0.00,WeatherDisplay:10.37,2013-03-04 05:45:00,
2013-03-04 01:00:00,28.2,18.3,29.59,NNE,16,0.0,3.0,66,0.00,,SKC,0.00,WeatherDisplay:10.37,2013-03-04 06:00:00,
2013-03-04 01:15:00,28.1,18.2,29.60,West,264,0.0,3.0,66,0.00,,SKC,0.00,WeatherDisplay:10.37,2013-03-04 06:15:00,
2013-03-04 01:30:00,28.1,18.2,29.60,East,100,0.0,2.0,66,0.00,,SKC,0.00,WeatherDisplay:10.37,2013-03-04 06:30:00,
2013-03-04 01:45:00,28.1,18.2,29.59,ENE,78,0.0,0.0,66,0.00,,SKC,0.00,WeatherDisplay:10.37,2013-03-04 06:45:00,
2013-03-04 02:00:00,27.9,18.4,29.60,East,81,0.0,1.0,67,0.00,,SKC,0.00,WeatherDisplay:10.37,2013-03-04 07:00:00,
2013-03-04 02:15:00,27.9,18.4,29.60,East,96,0.0,0.0,67,0.00,,SKC,0.00,WeatherDisplay:10.37,2013-03-04 07:15:00,
2013-03-04 02:30:00,27.9,18.7,29.60,SSE,154,0.0,1.0,68,0.00,,SKC,0.00,WeatherDisplay:10.37,2013-03-04 07:30:00,
2013-03-04 02:45:00,27.9,18.7,29.60,SSE,152,0.0,1.0,68,0.00,,SKC,0.00,WeatherDisplay:10.37,2013-03-04 07:45:00,
2013-03-04 03:00:00,27.9,18.7,29.60,NW,326,0.0,0.0,68,0.00,,SKC,0.00,WeatherDisplay:10.37,2013-03-04 08:00:00,
2013-03-04 03:15:00,27.9,18.7,29.60,NW,326,0.0,1.0,68,0.00,,SKC,0.00,WeatherDisplay:10.37,2013-03-04 08:15:00,
2013-03-04 03:30:00,27.8,18.6,29.60,SSW,195,0.0,3.0,68,0.00,,SKC,0.00,WeatherDisplay:10.37,2013-03-04 08:30:00,
2013-03-04 03:45:00,27.8,18.6,29.60,South,191,0.0,1.0,68,0.00,,SKC,0.00,WeatherDisplay:10.37,2013-03-04 08:45:00,
2013-03-04 04:00:00,27.8,18.6,29.60,South,191,0.0,0.0,68,0.00,,SKC,0.00,WeatherDisplay:10.37,2013-03-04 09:00:00,
2013-03-04 04:15:00,27.8,18.9,29.60,South,191,0.0,1.0,69,0.00,,SKC,0.00,WeatherDisplay:10.37,2013-03-04 09:15:00,
2013-03-04 04:30:00,27.8,18.9,29.61,East,89,0.0,1.0,69,0.00,,SKC,0.00,WeatherDisplay:10.37,2013-03-04 09:30:00,
2013-03-04 04:45:00,27.8,18.9,29.61,NE,42,0.0,0.0,69,0.00,,SKC,0.00,WeatherDisplay:10.37,2013-03-04 09:45:00,
2013-03-04 05:00:00,27.8,19.3,29.62,NE,42,0.0,0.0,70,0.00,,SKC,0.00,WeatherDisplay:10.37,2013-03-04 10:00:00,
2013-03-04 05:15:00,27.8,19.3,29.62,NE,42,0.0,0.0,70,0.00,,SKC,0.00,WeatherDisplay:10.37,2013-03-04 10:15:00,
2013-03-04 05:30:00,27.6,19.1,29.62,NE,42,0.0,0.0,70,0.00,,SKC,0.00,WeatherDisplay:10.37,2013-03-04 10:30:00,
2013-03-04 05:45:00,27.5,19.3,29.62,ESE,113,0.0,3.0,71,0.00,,SKC,0.00,WeatherDisplay:10.37,2013-03-04 10:45:00,
2013-03-04 06:00:00,27.2,19.4,29.62,East,89,0.0,2.0,72,0.00,,SKC,0.00,WeatherDisplay:10.37,2013-03-04 11:00:00,
2013-03-04 06:15:00,27.0,19.2,29.62,East,89,0.0,0.0,72,0.00,,SKC,0.00,WeatherDisplay:10.37,2013-03-04 11:15:00,
2013-03-04 06:30:00,27.0,19.2,29.62,WSW,241,0.0,1.0,72,0.00,,SKC,0.00,WeatherDisplay:10.37,2013-03-04 11:30:00,
2013-03-04 06:45:00,27.2,19.7,29.62,WSW,241,0.0,0.0,73,0.00,,SKC,0.00,WeatherDisplay:10.37,2013-03-04 11:45:00,
2013-03-04 07:00:00,27.6,19.8,29.62,South,176,1.0,2.0,72,0.00,,SKC,0.00,WeatherDisplay:10.37,2013-03-04 12:00:00,
2013-03-04 07:15:00,28.2,20.0,29.63,SSE,161,0.0,4.0,71,0.00,,SKC,0.00,WeatherDisplay:10.37,2013-03-04 12:15:00,
2013-03-04 07:30:00,28.7,20.5,29.63,NNE,19,0.0,6.0,71,0.00,,SKC,0.00,WeatherDisplay:10.37,2013-03-04 12:30:00,
2013-03-04 07:45:00,29.3,20.7,29.63,East,80,1.0,8.0,70,0.00,,SKC,0.00,WeatherDisplay:10.37,2013-03-04 12:45:00,
2013-03-04 08:00:00,29.8,20.9,29.63,NE,45,0.0,3.0,69,0.00,,SKC,0.00,WeatherDisplay:10.37,2013-03-04 13:00:00,
2013-03-04 08:15:00,30.3,21.0,29.63,East,95,0.0,12.0,68,0.00,,SKC,0.00,WeatherDisplay:10.37,2013-03-04 13:15:00,
2013-03-04 08:30:00,30.9,21.2,29.62,NNW,328,0.0,3.0,67,0.00,,SKC,0.00,WeatherDisplay:10.37,2013-03-04 13:30:00,
2013-03-04 08:45:00,32.1,21.3,29.62,NE,55,2.0,5.0,64,0.00,,SKC,0.00,WeatherDisplay:10.37,2013-03-04 13:45:00,
2013-03-04 09:00:00,32.8,21.2,29.62,NNE,20,1.0,12.0,62,0.00,,SKC,0.00,WeatherDisplay:10.37,2013-03-04 14:00:00,
2013-03-04 09:15:00,32.9,21.3,29.63,North,349,2.0,7.0,62,0.00,,SKC,0.00,WeatherDisplay:10.37,2013-03-04 14:15:00,
2013-03-04 09:30:00,33.1,21.1,29.63,North,352,1.0,6.0,61,0.00,,SKC,0.00,WeatherDisplay:10.37,2013-03-04 14:30:00,
2013-03-04 09:45:00,32.9,20.5,29.62,NE,38,0.0,7.0,60,0.00,,SKC,0.00,WeatherDisplay:10.37,2013-03-04 14:45:00,
2013-03-04 10:00:00,33.4,21.4,29.63,ESE,107,1.0,7.0,61,0.00,,SKC,0.00,WeatherDisplay:10.37,2013-03-04 15:00:00,
2013-03-04 10:15:00,34.3,21.4,29.62,East,86,1.0,6.0,59,0.00,,SKC,0.00,WeatherDisplay:10.37,2013-03-04 15:15:00,
2013-03-04 10:30:00,35.3,21.2,29.62,NNE,22,3.0,12.0,56,0.00,,SKC,0.00,WeatherDisplay:10.37,2013-03-04 15:30:00,
2013-03-04 10:45:00,36.6,21.9,29.61,NNW,331,2.0,7.0,55,0.00,,SKC,0.00,WeatherDisplay:10.37,2013-03-04 15:45:00,
2013-03-04 11:00:00,37.0,22.3,29.60,North,8,2.0,6.0,55,0.00,,SKC,0.00,WeatherDisplay:10.37,2013-03-04 16:00:00,
2013-03-04 11:15:00,37.3,21.3,29.61,NNW,337,1.0,7.0,52,0.00,,SKC,0.00,WeatherDisplay:10.37,2013-03-04 16:15:00,
2013-03-04 11:30:00,37.5,21.9,29.61,North,359,2.0,7.0,53,0.00,,SKC,0.00,WeatherDisplay:10.37,2013-03-04 16:30:00,
2013-03-04 11:45:00,37.6,22.0,29.62,NNW,340,3.0,12.0,53,0.00,,SKC,0.00,WeatherDisplay:10.37,2013-03-04 16:45:00,
2013-03-04 12:00:00,37.3,21.3,29.62,NE,38,1.0,12.0,52,0.00,,SKC,0.00,WeatherDisplay:10.37,2013-03-04 17:00:00,
2013-03-04 12:15:00,37.5,21.5,29.60,NNW,347,1.0,7.0,52,0.00,,SKC,0.00,WeatherDisplay:10.37,2013-03-04 17:15:00,
2013-03-04 12:30:00,37.9,21.4,29.60,NW,318,3.0,8.0,51,0.00,,SKC,0.00,WeatherDisplay:10.37,2013-03-04 17:30:00,
2013-03-04 12:45:00,38.4,21.3,29.59,NW,314,1.0,12.0,50,0.00,,SKC,0.00,WeatherDisplay:10.37,2013-03-04 17:45:00,
2013-03-04 13:00:00,38.0,21.9,29.59,NNW,334,1.0,14.0,52,0.00,,SKC,0.00,WeatherDisplay:10.37,2013-03-04 18:00:00,
2013-03-04 13:15:00,38.5,21.0,29.59,NNE,32,2.0,7.0,49,0.00,,SKC,0.00,WeatherDisplay:10.37,2013-03-04 18:15:00,
2013-03-04 13:30:00,38.9,21.3,29.59,North,351,3.0,12.0,49,0.00,,SKC,0.00,WeatherDisplay:10.37,2013-03-04 18:30:00,
2013-03-04 13:45:00,39.1,22.0,29.58,NNE,24,1.0,8.0,50,0.00,,SKC,0.00,WeatherDisplay:10.37,2013-03-04 18:45:00,
2013-03-04 14:00:00,39.2,22.1,29.58,NNW,328,0.0,10.0,50,0.00,,SKC,0.00,WeatherDisplay:10.37,2013-03-04 19:00:00,
2013-03-04 14:15:00,39.6,21.5,29.58,NNE,15,1.0,6.0,48,0.00,,SKC,0.00,WeatherDisplay:10.37,2013-03-04 19:15:00,
2013-03-04 14:30:00,39.9,22.3,29.58,ENE,57,1.0,7.0,49,0.00,,SKC,0.00,WeatherDisplay:10.37,2013-03-04 19:30:00,
2013-03-04 14:45:00,39.9,21.3,29.59,ENE,70,1.0,8.0,47,0.00,,SKC,0.00,WeatherDisplay:10.37,2013-03-04 19:45:00,
2013-03-04 15:00:00,39.5,21.9,29.59,NNE,24,2.0,12.0,49,0.00,,SKC,0.00,WeatherDisplay:10.37,2013-03-04 20:00:00,
2013-03-04 15:15:00,39.1,21.0,29.59,NNW,330,2.0,14.0,48,0.00,,SKC,0.00,WeatherDisplay:10.37,2013-03-04 20:15:00,
2013-03-04 15:30:00,39.1,20.5,29.59,NNW,329,2.0,8.0,47,0.00,,SKC,0.00,WeatherDisplay:10.37,2013-03-04 20:30:00,
2013-03-04 15:45:00,38.8,21.3,29.59,North,350,1.0,8.0,49,0.00,,SKC,0.00,WeatherDisplay:10.37,2013-03-04 20:45:00,
2013-03-04 16:00:00,38.9,21.3,29.59,NE,38,2.0,7.0,49,0.00,,SKC,0.00,WeatherDisplay:10.37,2013-03-04 21:00:00,
2013-03-04 16:15:00,38.9,21.8,29.59,NNE,17,2.0,8.0,50,0.00,,SKC,0.00,WeatherDisplay:10.37,2013-03-04 21:15:00,
2013-03-04 16:30:00,38.5,21.5,29.60,ENE,66,1.0,4.0,50,0.00,,SKC,0.00,WeatherDisplay:10.37,2013-03-04 21:30:00,
2013-03-04 16:45:00,37.2,21.2,29.61,North,11,0.0,7.0,52,0.00,,SKC,0.00,WeatherDisplay:10.37,2013-03-04 21:45:00,
2013-03-04 17:00:00,36.0,20.9,29.62,North,354,1.0,6.0,54,0.00,,SKC,0.00,WeatherDisplay:10.37,2013-03-04 22:00:00,
2013-03-04 17:15:00,35.0,20.4,29.63,North,7,3.0,10.0,55,0.00,,SKC,0.00,WeatherDisplay:10.37,2013-03-04 22:15:00,
2013-03-04 17:30:00,34.3,20.6,29.63,North,349,0.0,7.0,57,0.00,,SKC,0.00,WeatherDisplay:10.37,2013-03-04 22:30:00,
2013-03-04 17:45:00,33.8,20.2,29.63,NE,56,0.0,7.0,57,0.00,,SKC,0.00,WeatherDisplay:10.37,2013-03-04 22:45:00,
2013-03-04 18:00:00,33.4,20.2,29.63,ENE,60,2.0,5.0,58,0.00,,SKC,0.00,WeatherDisplay:10.37,2013-03-04 23:00:00,
2013-03-04 18:15:00,32.9,20.1,29.64,ENE,78,1.0,9.0,59,0.00,,SKC,0.00,WeatherDisplay:10.37,2013-03-04 23:15:00,
2013-03-04 18:30:00,32.8,20.0,29.64,North,0,3.0,10.0,59,0.00,,SKC,0.00,WeatherDisplay:10.37,2013-03-04 23:30:00,
2013-03-04 18:45:00,32.7,19.9,29.65,NNW,343,3.0,13.0,59,0.00,,SKC,0.00,WeatherDisplay:10.37,2013-03-04 23:45:00,
2013-03-04 19:00:00,32.4,20.1,29.65,NNW,341,0.0,10.0,60,0.00,,SKC,0.00,WeatherDisplay:10.37,2013-03-05 00:00:00,
2013-03-04 19:15:00,32.2,20.2,29.67,NNW,335,0.0,3.0,61,0.00,,SKC,0.00,WeatherDisplay:10.37,2013-03-05 00:15:00,
2013-03-04 19:30:00,31.9,19.6,29.67,NW,326,0.0,3.0,60,0.00,,SKC,0.00,WeatherDisplay:10.37,2013-03-05 00:30:00,
2013-03-04 19:45:00,31.8,19.9,29.67,NE,35,0.0,4.0,61,0.00,,SKC,0.00,WeatherDisplay:10.37,2013-03-05 00:45:00,
2013-03-04 20:00:00,31.6,20.1,29.68,North,10,1.0,6.0,62,0.00,,SKC,0.00,WeatherDisplay:10.37,2013-03-05 01:00:00,
2013-03-04 20:15:00,31.8,20.3,29.69,North,11,0.0,6.0,62,0.00,,SKC,0.00,WeatherDisplay:10.37,2013-03-05 01:15:00,
2013-03-04 20:30:00,31.8,20.3,29.69,North,355,1.0,8.0,62,0.00,,SKC,0.00,WeatherDisplay:10.37,2013-03-05 01:30:00,
2013-03-04 20:45:00,31.6,20.4,29.69,North,359,1.0,6.0,63,0.00,,SKC,0.00,WeatherDisplay:10.37,2013-03-05 01:45:00,
2013-03-04 21:00:00,31.5,20.7,29.69,North,1,0.0,12.0,64,0.00,,SKC,0.00,WeatherDisplay:10.37,2013-03-05 02:00:00,
2013-03-04 21:15:00,31.5,21.1,29.69,NNE,12,0.0,10.0,65,0.00,,SKC,0.00,WeatherDisplay:10.37,2013-03-05 02:15:00,
2013-03-04 21:30:00,31.3,20.5,29.69,NNW,342,1.0,10.0,64,0.00,,SKC,0.00,WeatherDisplay:10.37,2013-03-05 02:30:00,
2013-03-04 21:45:00,31.3,20.5,29.69,NNW,327,2.0,8.0,64,0.00,,SKC,0.00,WeatherDisplay:10.37,2013-03-05 02:45:00,
2013-03-04 22:00:00,31.3,20.5,29.70,North,3,2.0,9.0,64,0.00,,SKC,0.00,WeatherDisplay:10.37,2013-03-05 03:00:00,
2013-03-04 22:15:00,31.2,20.4,29.70,NNE,17,2.0,7.0,64,0.00,,SKC,0.00,WeatherDisplay:10.37,2013-03-05 03:15:00,
2013-03-04 22:30:00,31.2,20.8,29.70,North,1,1.0,7.0,65,0.00,,SKC,0.00,WeatherDisplay:10.37,2013-03-05 03:30:00,
2013-03-04 22:45:00,31.0,20.6,29.70,NNE,23,1.0,8.0,65,0.00,,SKC,0.00,WeatherDisplay:10.37,2013-03-05 03:45:00,
2013-03-04 23:00:00,30.9,20.5,29.71,North,357,0.0,5.0,65,0.00,,SKC,0.00,WeatherDisplay:10.37,2013-03-05 04:00:00,
2013-03-04 23:15:00,30.7,20.3,29.72,North,358,1.0,7.0,65,0.00,,SKC,0.00,WeatherDisplay:10.37,2013-03-05 04:15:00,
2013-03-04 23:30:00,30.7,20.7,29.71,NNE,12,0.0,8.0,66,0.00,,SKC,0.00,WeatherDisplay:10.37,2013-03-05 04:30:00,
2013-03-04 23:45:00,30.6,20.6,29.72,North,354,1.0,10.0,66,0.00,,SKC,0.00,WeatherDisplay:10.37,2013-03-05 04:45:00,